Regional Weather Roundup
Issued by NWS

Home | Current Version | Previous Version | Text Only | Print | Product List | Glossary On
Versions: 1 2 3 4 5 6 7 8 9 10 11 12 13 14 15 16 17 18 19 20 21 22 23 24 25 26 27 28 29 30 31 32 33 34 35 36 37 38 39 40 41 42 43 44 45 46 47 48 49 50
000
ASUS43 KDMX 282008
RWRIA

WEATHER ROUNDUP FOR IOWA
NATIONAL WEATHER SERVICE DES MOINES IA
300 PM CDT SAT MAY 28 2016

NOTE: "FAIR" INDICATES FEW OR NO CLOUDS BELOW 12,000 FEET WITH NO
SIGNIFICANT WEATHER AND/OR OBSTRUCTIONS TO VISIBILITY.

* - THESE STATIONS ARE NOT NWS STATIONS...THUS NOT UNDER NWS
QUALITY CONTROL.  THEY ALSO DO NOT REPORT WEATHER SUCH
AS PRECIPITATION OR FOG.

IAZ001>003-012>014-020>022-031>034-043>046-282100-
   NORTHWEST IOWA

CITY           SKY/WX    TMP DP  RH WIND       PRES   REMARKS
CARROLL *      MOSUNNY   73  57  56 SW17G23   29.76S
CHEROKEE *     PTSUNNY   72  61  68 S7        29.74F
DENISON *      PTSUNNY   66  57  72 SW8G24    29.75R
LE MARS *      PTSUNNY   72  59  64 S8        29.74F
ORANGE CITY *  PTSUNNY   72  59  64 SW6       29.74F
SHELDON *      PTSUNNY   72  57  60 SW8       29.74S
SIOUX CITY     PTSUNNY   71  58  63 S5        29.73S
SPENCER        CLOUDY    69  57  65 VRB6      29.74F
STORM LAKE *     N/A     70  57  64 SW14G20   29.76S
$$

IAZ055>058-069>071-079>083-090>094-282100-
   SOUTHWEST IOWA

CITY           SKY/WX    TMP DP  RH WIND       PRES   REMARKS
ATLANTIC *     PTSUNNY   70  57  64 SW18G26   29.79S
AUDUBON *      MOSUNNY   73  61  64 SW13      29.79S
CLARINDA *       N/A     73  61  64 MISG      29.84S
COUNCIL BLFS *   N/A     66  59  77 W14G23    29.81R
CRESTON *      CLOUDY    68  59  73 SW12G21   29.84R
HARLAN  *      CLOUDY    70  59  68 SW18G25   29.82R
LAMONI         LGT RAIN  69  62  78 SW14G21   29.84S
RED OAK *      PTSUNNY   73  59  60 SW16G23   29.81S
SHENANDOAH *   PTSUNNY   73  59  60 SW16G23   29.83S
$$

IAZ047>049-059>061-072>074-084-282100-
   CENTRAL IOWA

CITY           SKY/WX    TMP DP  RH WIND       PRES   REMARKS
AMES           RAIN      66  64  93 S10       29.78R FOG
ANKENY *       PTSUNNY   70  66  88 SW13      29.79R
BOONE *        PTSUNNY   72  61  68 SW12      29.77R
CHARITON *     PTSUNNY   70  63  78 SW14G20   29.83S
DES MOINES     PTSUNNY   70  62  76 SW10      29.79S
GRINNELL*      CLOUDY    72  63  73 S21G30    29.80R
KNOXVILLE *    CLOUDY    70  63  78 SW17G24   29.80R
MARSHALLTOWN   CLOUDY    67  65  93 S8        29.78R
NEWTON *       PTSUNNY   70  66  88 SW20G26   29.79S
PERRY *          N/A     73  63  68 SW14      29.77S
$$

IAZ004>006-015-016-023>025-035-036-282100-
   NORTH CENTRAL IOWA

CITY           SKY/WX    TMP DP  RH WIND       PRES   REMARKS
ALGONA *       CLOUDY    72  61  68 SW9       29.75S
CLARION *      PTSUNNY   68  63  83 NW10      29.77R
ESTHERVILLE    MOSUNNY   70  64  81 NW12      29.74F
FORT DODGE *   PTSUNNY   73  57  56 SW10      29.76F
MASON CITY     CLOUDY    72  64  76 S15       29.77R
FOREST CITY *  RAIN      61  59  94 CALM      29.77S VSB 1
WEBSTER CITY * PTSUNNY   73  63  68 SW14G20   29.74F
IOWA FALLS *   PTSUNNY   72  63  73 S9        29.78S
$$

IAZ007>011-017>019-026>030-037>042-050>054-066-282100-
   NORTHEAST IOWA

CITY           SKY/WX    TMP DP  RH WIND       PRES   REMARKS
CEDAR RAPIDS   LGT RAIN  73  70  90 S13       29.78S
CHARLES CITY * PTSUNNY   73  66  78 S15       29.77F
CLINTON *      PTSUNNY   82  66  58 S22G31    29.81F HX  84
DECORAH *      PTSUNNY   75  61  60 S9G16     29.77F
DUBUQUE        MOSUNNY   78  63  59 S16       29.80F HX  80
MONTICELLO *   PTSUNNY   75  64  69 S10G21    29.79R HAZE
OELWEIN *      PTSUNNY   75  63  64 SW10G17   29.78S
WATERLOO       MOSUNNY   73  61  65 S9        29.76F
$$

IAZ064-065-067-068-078-282100-
   EAST CENTRAL IOWA

CITY           SKY/WX    TMP DP  RH WIND       PRES   REMARKS
DAVENPORT      MOSUNNY   81  64  56 S22       29.81F HX  82
IOWA CITY      CLOUDY    78  67  68 S17       29.79F HX  80
MT. PLEASANT * PTSUNNY   79  70  73 S15G21    29.82F HX  81
MUSCATINE *    PTSUNNY   79  64  61 S21G30    29.80F HX  81
QUAD CITIES    SUNNY     84  65  52 S18G29    29.80F HX  86
$$

IAZ062-063-075>077-085>089-095>099-282100-
   SOUTHEAST IOWA

CITY           SKY/WX    TMP DP  RH WIND       PRES   REMARKS
BURLINGTON     PTSUNNY   76  67  73 S17G25    29.82F
FAIRFIELD *      N/A    N/A N/A N/A MISG        N/A
FORT MADISON * PTSUNNY   79  66  65 S12G21    29.84S HX  81
KEOKUK *       PTSUNNY   79  68  69 SW18G24   29.83S HX  81
OSKALOOSA *      N/A     77  61  57 SW24G31   29.81S
OTTUMWA        MOSUNNY   76  62  62 SW16G29   29.81S
WASHINGTON *   MOSUNNY   77 -33   1 S22G31    29.81S
$$

ABBREVIATIONS USED IN REMARKS
   TC - TEMPERATURES IN CELSIUS
  WCI - WIND CHILL INDEX
   HX - HEAT INDEX
  VSB - VISIBILITY
$$




USA.gov is the U.S. government's official web portal to all federal, state and local government web resources and services.